www.pogodaiklimat.ru

Погода и климат >> Архив погоды >> Мексика >> Сото ла Марина


ПОГОДА в Сото ла Марина

  • Прогноз погоды в Сото ла Марина
  • Монитор погоды в Сото ла Марина

АРХИВ ПОГОДЫ в Сото ла Марина

Время (UTC), дата Ветер
(напр.,м/с)
 
Видим.   Явления Облачность Т
(С)
Тd
(С)
f
(%)
Тe
(С)
Тes
(С)
Комфортность P
(гПа)
Po
(гПа)
Тmin
(С)
Tmax
(С)
R
(мм)
R24
(мм)
S
(см)
12 18.05 штиль 0 8000 м ясно +26.3 +24.9 92 +38 +38 очень
душно
1005.2 1002.8 +26.2 +38.7
15 18.05 В 2 8000 м мгла {туман} 1/1 600 м
[Cu med, cong]
+30.6 +24.5 70 +43 +52 опасность
перегрева
1005.6 1003.2
18 18.05 штиль 0 6000 м мгла ясно +36.6 +23.5 47 +47 +77 опасность
перегрева
1003.1 1000.7 +26.2 +37.2
21 18.05 штиль 0 7000 м мгла ясно +39.0 +23.8 42 +50 +70 опасность
перегрева
1000.6 998.3
00 19.05 ЮВ 3 7000 м мгла {туман} ясно +33.6 +24.3 58 +46 +47 опасность
перегрева
995.8 993.5 +26.2 +40.0
03 19.05 ЮВ 2 6000 м мгла {туман} ясно +28.8 +23.9 75 +40 +40 очень
душно
1003.5 1001.2
06 19.05 ЮВ 2 6000 м ясно +27.5 +24.0 81 +38 +38 очень
душно
1004.6 1002.3 +40.0
09 19.05 ЮВ 2 6000 м ясно +26.7 +24.7 89 +38 +38 очень
душно
1003.8 1001.4
12 19.05 штиль 0 200 м туман ясно +26.2 +25.5 96 +38 +38 очень
душно
1005.1 1002.7 +26.2 +40.0
15 19.05 ЮВ 1 8000 м {туман} 6/6 600 м
[Cu med, cong]
+29.6 +24.0 72 +41 +46 опасность
перегрева
1006.3 1003.9
18 19.05 ЮВ 1 8000 м мгла 4/0 2000 м
[Ac trans]
+35.6 +23.6 50 +46 +66 опасность
перегрева
1006.9 1004.5 +26.2 +36.0
21 19.05 В 1 7000 м мгла ясно +37.3 +22.5 43 +46 +64 опасность
перегрева
1004.1 1001.8
00 20.05 штиль 0 8000 м мгла {туман} ясно +33.4 +23.7 57 +45 +47 опасность
перегрева
1004.0 1001.7 +26.2 +38.2
03 20.05 штиль 0 6000 м ясно +29.0 +24.6 77 +41 +41 опасность
перегрева
1007.6 1005.3
06 20.05 В 1 5000 м 3/3 600 м
[Cu med, cong]
+27.6 +24.3 82 +39 +39 очень
душно
1009.1 1006.8 +27.6 +38.2
09 20.05 В 1 5000 м ясно +26.8 +24.6 88 +38 +38 очень
душно
1009.4 1007.0
12 20.05 штиль 0 7000 м ясно +26.2 +24.8 92 +37 +37 очень
душно
1008.8 1006.4 +26.0 +38.2
15 20.05 В 3 8000 м мгла {туман} ясно +31.2 +25.3 71 +45 +53 опасность
перегрева
1009.6 1007.2
18 20.05 ЮВ 2 8000 м мгла ясно +36.4 +22.9 46 +46 +68 опасность
перегрева
1006.8 1004.4
21 20.05 В 2 8000 м мгла ясно +37.8 +33 +48 жарко 1003.7 1001.4
00 21.05 ЮВ 4 8000 м мгла {туман} 4/0
[Cs]
+33.0 +20.5 48 +40 +41 очень
душно
1002.9 1000.6 +26.0 +38.7
03 21.05 ЮВ 3 6000 м ясно +28.6 +23.2 73 +39 +39 очень
душно
1004.2 1001.9
06 21.05 ЮВ 3 5000 м 3/3 600 м
[Cu med, cong]
+27.6 +23.2 77 +37 +37 очень
душно
1005.2 1002.9 +38.7
09 21.05 ЮВ 2 5000 м ясно +26.5 +22.5 79 +35 +35 очень
душно
1004.9 1002.0
12 21.05 штиль 0 7000 м ясно +23.2 +20.6 85 +31 +31 очень
душно
1002.7 1000.3 +23.0 +38.7
15 21.05 В 3 8000 м мгла {туман} ясно +31.0 +23.0 62 +41 +49 опасность
перегрева
1003.2 1000.8
18 21.05 В 1 8000 м мгла ясно +37.0 +24.3 48 +49 +74 опасность
перегрева
1001.4 999.0 +23.0 +37.2
21 21.05 В 1 8000 м мгла ясно +40.6 +24.1 39 +51 +69 опасность
перегрева
999.9 997.6
00 22.05 ЮВ 3 7000 м мгла {туман} ясно +34.1 +24.0 56 +46 +47 опасность
перегрева
1000.3 998.0 +23.0 +41.5
12 22.05 штиль 0 7000 м ясно +24.6 +23.1 91 +33 +33 очень
душно
1004.6 1002.2 +24.5 +41.5
15 22.05 В 1 8000 м мгла {туман} 10/5 600 м
[Cu med, cong As op]
+29.6 +22.8 67 +39 +40 очень
душно
1006.0 1003.6
18 22.05 ЮВ 2 8000 м мгла ясно +36.0 +23.9 50 +47 +69 опасность
перегрева
1004.5 1002.1 +24.5 +36.3
21 22.05 ЮВ 2 8000 м мгла ясно +38.6 +23.6 42 +49 +64 опасность
перегрева
1003.0 1000.7
00 23.05 ЮВ 3 7000 м мгла {туман} 6/0
[Ci]
+33.1 +23.5 57 +44 +45 опасность
перегрева
1003.9 1001.6 +24.5 +39.3
03 23.05 ЮВ 2 6000 м ясно +29.0 +25.9 83 +43 +43 опасность
перегрева
1007.1 1004.8
12 23.05 штиль 0 7000 м ясно +26.3 +24.4 89 +37 +37 очень
душно
1009.4 1007.0 +26.2 +39.3
15 23.05 В 3 8000 м мгла {туман} 1/1 600 м
[Cu med, cong]
+31.8 +25.6 70 +47 +54 опасность
перегрева
1010.9 1008.5
18 23.05 ЮВ 1 8000 м мгла {туман} 3/1 600 м
[Cu med, cong]
+37.8 +24.6 47 +50 +71 опасность
перегрева
1009.5 1007.1 +26.2 +38.1
21 23.05 ЮВ 2 8000 м мгла 3/3 600 м
[Cu med, cong]
+38.4 +23.7 43 +49 +60 опасность
перегрева
1007.1 1004.8
00 24.05 ЮВ 3 8000 м мгла {туман} 4/4 600 м
[Cu med, cong]
+32.6 +23.1 57 +43 +44 опасность
перегрева
1008.0 1005.7 +26.2 +39.6
03 24.05 ЮВ 3 5000 м 8/8 600 м
[Cu med, cong]
+29.3 +24.4 75 +41 +41 опасность
перегрева
1009.9 1007.6
12 24.05 штиль 0 7000 м 3/3 600 м
[Cu med, cong]
+25.2 +22.8 87 +33 +33 очень
душно
1011.8 1009.4 +25.0 +39.6
18 24.05 ЮВ 4 9000 м {морось} 3/3 630 м
[Cu med, cong]
+33.6 +22.9 54 +44 +54 опасность
перегрева
1011.6 1009.2 +25.0 +33.7 0.1
21 24.05 ЮВ 3 9000 м мгла {туман} 3/3 630 м
[Cu med, cong]
+36.7 +24.1 49 +49 +57 опасность
перегрева
1009.2 1006.8
00 25.05 ЮВ 3 8000 м мгла {туман} ясно +33.3 +23.4 56 +44 +45 опасность
перегрева
1009.1 1006.7 +25.0 +38.0
03 25.05 ЮВ 2 5000 м 3/3 600 м
[Cu med, cong]
+28.8 +23.9 75 +40 +40 очень
душно
1010.4 1008.0

 

Местоположение метеостанции Сото ла Марина (Мексика): широта 23.77 долгота -98.20 высота над уровнем моря 21 м.

В архиве по умолчанию представлена погода в Сото ла Марина за последнюю неделю. Архивные данные за месяц целиком и за предыдущие месяцы, начиная с января 2011 года, Вы можете получить, выбрав интересующий диапазон дат из раскрывающегося списка и нажав кнопку "Ввод!".


*Определитесь, кто Вы:
робот инопланетянин человек

Внимание! Время в таблицах - всемирное. Для получения местного времени необходимо прибавить поправку, которая равна -6 ч.

Смотрите также архив погоды в соседних городах и на ближайших метеорологических станциях:

Погода в Сьюдад-Виктории (Мексика) (95 км)
Погода в Тампико (Мексика) (178 км)
Погода в Тамуине (Мексика) (205 км)
Погода в Рио-Верде (Мексика) (274 км)
Погода в Маталапе (Мексика) (280 км)
Погода в Монтеррее (Мексика) (304 км)
Погода в Туспане (Мексика) (324 км)
Погода в Сан-Луис-Потоси (Мексика) (328 км)
Погода в Солтильо (Мексика) (334 км)
Погода в Пачуке (Мексика) (409 км)

Пояснения к столбцам:

Ветер - указаны скорость ветра в м/с - средняя за 10 мин, порывы в срок и между сроками (в фигурных скобках) и направление, откуда дует ветер: С - северный, СВ - северо-восточный, В - восточный, ЮВ - юго-восточный, Ю - южный, ЮЗ - юго-западный, З - западный, СЗ - северо-западный.
Видимость - горизонтальная дальность видимости в метрах или километрах. При видимости от 1 до 10 км при отсутствии осадков обычно наблюдается дымка, при ухудшении видимости до 1 км и менее - туман. В сухую погоду видимость может ухудшаться дымом, пылью или мглою.
Явления - указаны атмосферные явления, наблюдавшиеся в срок или в последний час перед сроком; фигурными скобками обозначены явления, наблюдавшиеся между сроками (за 1-3 часа до срока); квадратными скобками обозначены град или гололедные отложения с указанием их диаметра в мм.
Облачность - указаны через наклонную черту общая и нижняя облачность в баллах и высота нижней границы облаков в метрах; квадратными скобками обозначены формы облаков: Ci - перистые, Cs - перисто-слоистые, Cc - перисто-кучевые, Ac - высококучевые, As - высокослоистые, Sc - слоисто-кучевые, Ns - слоисто-дождевые, Cu - кучевые, Cb - кучево-дождевые. Подробнее классификацию облаков см. в Атласе облаков (PDF).
T - Температура воздуха - температура, измеренная на высоте 2 м над землей.
Td - Температура точки росы - температура, при понижении до которой содержащийся в воздухе водяной пар достигнет насыщения.
f - Относительная влажность воздуха - влажноcть воздуха, измеренная на высоте 2 м над землей.
Te - Эффективная температура - температура, которую ощущает одетый по сезону человек в тени. Характеристика душности погоды. При расчете учитывается влияние влажности воздуха и скорости ветра на теплоощущения человека.
Tes - Эффективная температура на солнце - температура, которую ощущает человек, с поправкой на солнечный нагрев. Характеристика знойности погоды. Зависит от высоты солнца над горизонтом, облачности и скорости ветра. Ночью, в пасмурную погоду, а также при ветре 12 м/с и более поправка равна нулю.
P - Атмосферное давление - приведенное к уровню моря атмосферное давление.
Po - Атмосферное давление - измеренное на уровне метеостанции атмосферное давление.
Tmin - Минимальная температура - минимум температуры воздуха на высоте 2 м над землей.
Tmax - Максимальная температура - максимум температуры воздуха на высоте 2 м над землей.
R - Количество осадков - Количество выпавших осадков за период времени, мм. При наведении курсора мыши на число - период времени, за который выпало указанное количество осадков.
R24 - Количество осадков - Количество выпавших осадков за 24 часа, мм.
S - Снежный покров - Высота снежного покрова, см. При наведении курсора мыши на число - состояние снежного покрова и степень покрытия местности в баллах.